TimeCDT,TemperatureF,Dew PointF,Humidity,Sea Level PressureIn,VisibilityMPH,Wind Direction,Wind SpeedMPH,Gust SpeedMPH,PrecipitationIn,Events,Conditions,WindDirDegrees,DateUTC
12:15 AM,60.8,55.4,82,30.00,10.0,NNW,4.6,-,N/A,,Clear,330,2013-10-02 05:15:00
12:35 AM,60.8,57.2,88,30.01,10.0,NNW,6.9,-,N/A,,Mostly Cloudy,340,2013-10-02 05:35:00
12:55 AM,62.6,57.2,82,30.01,10.0,North,8.1,-,N/A,,Overcast,350,2013-10-02 05:55:00
1:15 AM,62.6,57.2,82,30.01,10.0,North,6.9,-,N/A,,Overcast,350,2013-10-02 06:15:00
1:35 AM,62.6,57.2,82,30.02,10.0,North,6.9,-,N/A,,Mostly Cloudy,360,2013-10-02 06:35:00
1:55 AM,62.6,57.2,82,30.03,10.0,North,8.1,-,N/A,,Overcast,360,2013-10-02 06:55:00
2:15 AM,60.8,55.4,82,30.03,10.0,North,8.1,-,N/A,,Mostly Cloudy,360,2013-10-02 07:15:00
2:35 AM,60.8,55.4,82,30.03,10.0,NNE,5.8,-,N/A,,Mostly Cloudy,20,2013-10-02 07:35:00
2:55 AM,57.2,53.6,88,30.04,10.0,NE,4.6,-,N/A,,Scattered Clouds,50,2013-10-02 07:55:00
3:15 AM,57.2,53.6,88,30.04,10.0,East,4.6,-,N/A,,Partly Cloudy,80,2013-10-02 08:15:00
3:35 AM,57.2,53.6,88,30.05,10.0,East,3.5,-,N/A,,Clear,80,2013-10-02 08:35:00
3:55 AM,57.2,53.6,88,30.05,10.0,ENE,4.6,-,N/A,,Partly Cloudy,70,2013-10-02 08:55:00
4:15 AM,55.4,51.8,88,30.05,10.0,NNE,6.9,-,N/A,,Mostly Cloudy,30,2013-10-02 09:15:00
4:35 AM,57.2,51.8,82,30.06,10.0,NE,3.5,-,N/A,,Mostly Cloudy,40,2013-10-02 09:35:00
4:55 AM,55.4,51.8,88,30.06,10.0,NE,5.8,-,N/A,,Overcast,40,2013-10-02 09:55:00
5:15 AM,57.2,51.8,82,30.06,10.0,NE,5.8,-,N/A,,Overcast,50,2013-10-02 10:15:00
5:35 AM,57.2,51.8,82,30.07,10.0,NE,5.8,-,N/A,,Overcast,50,2013-10-02 10:35:00
5:55 AM,57.2,51.8,82,30.07,10.0,NE,6.9,-,N/A,,Overcast,50,2013-10-02 10:55:00
6:15 AM,57.2,51.8,82,30.08,10.0,NE,5.8,-,N/A,,Overcast,50,2013-10-02 11:15:00
6:35 AM,57.2,51.8,82,30.08,10.0,NE,6.9,-,N/A,,Mostly Cloudy,50,2013-10-02 11:35:00
6:55 AM,55.4,51.8,88,30.08,10.0,NE,4.6,-,N/A,,Partly Cloudy,50,2013-10-02 11:55:00
7:15 AM,55.4,50.0,82,30.08,10.0,NE,6.9,-,N/A,,Scattered Clouds,50,2013-10-02 12:15:00
7:35 AM,55.4,50.0,82,30.09,10.0,NE,3.5,-,N/A,,Partly Cloudy,40,2013-10-02 12:35:00
7:55 AM,57.2,51.8,82,30.09,10.0,NNE,5.8,-,N/A,,Clear,30,2013-10-02 12:55:00
8:15 AM,59.0,51.8,77,30.10,10.0,NE,5.8,-,N/A,,Scattered Clouds,50,2013-10-02 13:15:00
8:35 AM,60.8,53.6,77,30.10,10.0,ENE,6.9,-,N/A,,Scattered Clouds,60,2013-10-02 13:35:00
8:55 AM,64.4,53.6,68,30.11,10.0,East,6.9,-,N/A,,Clear,80,2013-10-02 13:55:00
9:15 AM,66.2,51.8,60,30.11,10.0,East,10.4,-,N/A,,Mostly Cloudy,80,2013-10-02 14:15:00
9:35 AM,68.0,46.4,46,30.11,10.0,East,10.4,-,N/A,,Mostly Cloudy,90,2013-10-02 14:35:00
9:55 AM,69.8,46.4,43,30.11,10.0,East,13.8,-,N/A,,Partly Cloudy,90,2013-10-02 14:55:00
10:15 AM,69.8,46.4,43,30.10,10.0,East,15.0,-,N/A,,Clear,90,2013-10-02 15:15:00
10:35 AM,71.6,44.6,38,30.10,10.0,East,16.1,-,N/A,,Clear,90,2013-10-02 15:35:00
10:55 AM,73.4,44.6,36,30.10,10.0,East,12.7,-,N/A,,Clear,90,2013-10-02 15:55:00
11:15 AM,73.4,44.6,36,30.09,10.0,East,13.8,-,N/A,,Clear,100,2013-10-02 16:15:00
11:35 AM,75.2,44.6,34,30.09,10.0,East,15.0,18.4,N/A,,Clear,100,2013-10-02 16:35:00
11:55 AM,75.2,44.6,34,30.09,10.0,East,13.8,18.4,N/A,,Clear,100,2013-10-02 16:55:00
12:15 PM,77.0,44.6,32,30.08,10.0,East,12.7,19.6,N/A,,Clear,100,2013-10-02 17:15:00
12:35 PM,78.8,46.4,32,30.07,10.0,ESE,13.8,-,N/A,,Clear,120,2013-10-02 17:35:00
12:55 PM,78.8,46.4,32,30.06,9.0,ESE,11.5,-,N/A,,Clear,110,2013-10-02 17:55:00
1:15 PM,78.8,48.2,34,30.05,7.0,ESE,12.7,-,N/A,,Clear,110,2013-10-02 18:15:00
1:35 PM,80.6,48.2,32,30.05,7.0,ESE,9.2,-,N/A,,Clear,110,2013-10-02 18:35:00
1:55 PM,80.6,48.2,32,30.04,10.0,SE,9.2,-,N/A,,Clear,140,2013-10-02 18:55:00
2:15 PM,80.6,48.2,32,30.03,10.0,ESE,10.4,-,N/A,,Clear,110,2013-10-02 19:15:00
2:35 PM,82.4,48.2,30,30.03,10.0,SSE,10.4,-,N/A,,Partly Cloudy,160,2013-10-02 19:35:00
2:55 PM,82.4,51.8,35,30.02,10.0,East,9.2,-,N/A,,Clear,100,2013-10-02 19:55:00
3:15 PM,82.4,53.6,37,30.02,10.0,SE,9.2,-,N/A,,Clear,130,2013-10-02 20:15:00
3:35 PM,82.4,53.6,37,30.01,10.0,SSE,5.8,-,N/A,,Clear,160,2013-10-02 20:35:00
3:55 PM,82.4,55.4,39,30.00,10.0,SE,5.8,-,N/A,,Clear,130,2013-10-02 20:55:00
4:15 PM,82.4,55.4,39,29.99,10.0,East,9.2,-,N/A,,Clear,100,2013-10-02 21:15:00
4:35 PM,82.4,57.2,42,29.99,10.0,SE,5.8,-,N/A,,Clear,140,2013-10-02 21:35:00
4:55 PM,80.6,60.8,51,29.98,10.0,SSE,11.5,16.1,N/A,,Partly Cloudy,150,2013-10-02 21:55:00
5:15 PM,80.6,60.8,51,29.98,10.0,SE,9.2,-,N/A,,Partly Cloudy,140,2013-10-02 22:15:00
5:35 PM,80.6,60.8,51,29.98,10.0,SSE,11.5,-,N/A,,Clear,150,2013-10-02 22:35:00
5:55 PM,77.0,60.8,57,29.98,10.0,SE,6.9,-,N/A,,Clear,130,2013-10-02 22:55:00
6:15 PM,75.2,60.8,61,29.98,10.0,SE,6.9,-,N/A,,Clear,130,2013-10-02 23:15:00
6:35 PM,73.4,60.8,65,29.98,10.0,SE,6.9,-,N/A,,Clear,130,2013-10-02 23:35:00
6:55 PM,73.4,60.8,65,29.98,10.0,SE,9.2,-,N/A,,Clear,140,2013-10-02 23:55:00
7:15 PM,71.6,60.8,69,29.98,10.0,SSE,8.1,-,N/A,,Clear,150,2013-10-03 00:15:00
7:35 PM,71.6,59.0,64,29.97,5.0,SSE,6.9,-,N/A,,Clear,150,2013-10-03 00:35:00
7:55 PM,71.6,59.0,64,29.97,10.0,SSE,8.1,-,N/A,,Clear,150,2013-10-03 00:55:00
8:15 PM,71.6,59.0,64,29.97,10.0,SSE,8.1,-,N/A,,Clear,150,2013-10-03 01:15:00
8:35 PM,69.8,59.0,68,29.98,10.0,SSE,6.9,-,N/A,,Clear,160,2013-10-03 01:35:00
8:55 PM,68.0,57.2,68,29.97,10.0,SSE,6.9,-,N/A,,Clear,150,2013-10-03 01:55:00
9:15 PM,66.2,57.2,73,29.97,10.0,SE,8.1,-,N/A,,Clear,140,2013-10-03 02:15:00
9:35 PM,66.2,57.2,73,29.97,10.0,SE,8.1,-,N/A,,Clear,140,2013-10-03 02:35:00
9:55 PM,66.2,59.0,78,29.97,10.0,SE,8.1,-,N/A,,Clear,130,2013-10-03 02:55:00
10:15 PM,66.2,59.0,78,29.97,10.0,ESE,6.9,-,N/A,,Clear,110,2013-10-03 03:15:00
10:35 PM,66.2,59.0,78,29.98,10.0,ESE,6.9,-,N/A,,Clear,120,2013-10-03 03:35:00
10:55 PM,66.2,59.0,78,29.98,10.0,ESE,10.4,-,N/A,,Clear,110,2013-10-03 03:55:00
11:15 PM,66.2,59.0,78,29.97,10.0,ESE,9.2,-,N/A,,Partly Cloudy,110,2013-10-03 04:15:00
11:35 PM,64.4,59.0,83,29.97,10.0,ESE,8.1,-,N/A,,Partly Cloudy,110,2013-10-03 04:35:00
11:55 PM,64.4,59.0,83,29.96,10.0,SE,8.1,-,N/A,,Clear,130,2013-10-03 04:55:00